ICE550 BIKF-LPPT

Flight info

Callsign ICE550
Flight time 4h 1m
Altitude 35000
Route RIMUM1C RIMUM DCT RUMUX DCT RAPAX DCT AGORI/N0452F350 DCT OSBOX/M079F350 DCT LASNO DCT BEGAS/N0454F350 DCT PINEK DCT XAMAX
Aircraft B38M/M-SDE1FGHILORVWXY/HB1

Departure

Time 2026-04-26 22:03
Airport Keflavik International Airport (BIKF)

Arrival

Time 2026-04-27 02:05
Airport Lisbon Humberto Delgado Airport (LPPT)
Time Latitude Longitude Altitude Speed Heading
2026-04-26 21:39 63.99278 -22.62199 166 ft 0 kts 300°
2026-04-26 21:49 63.99278 -22.62197 166 ft 1 kts 300°
2026-04-26 21:50 63.99271 -22.62169 163 ft 3 kts 300°
2026-04-26 21:50 63.99264 -22.62143 163 ft 3 kts 300°
2026-04-26 21:50 63.99251 -22.62093 166 ft 2 kts 301°
2026-04-26 21:50 63.99244 -22.62055 166 ft 3 kts 276°
2026-04-26 21:51 63.99246 -22.62018 166 ft 3 kts 231°
2026-04-26 21:51 63.99261 -22.61995 166 ft 3 kts 194°
2026-04-26 21:51 63.99274 -22.61991 166 ft 1 kts 179°
2026-04-26 21:51 63.99275 -22.61991 166 ft 0 kts 179°
2026-04-26 21:59 63.99260 -22.61991 166 ft 5 kts 179°
2026-04-26 21:59 63.99204 -22.61988 166 ft 8 kts 178°
2026-04-26 21:59 63.99170 -22.61892 166 ft 10 kts 90°
2026-04-26 21:59 63.99170 -22.61782 166 ft 11 kts 89°
2026-04-26 22:00 63.99172 -22.61526 167 ft 13 kts 90°
2026-04-26 22:00 63.99172 -22.61305 168 ft 15 kts 89°
2026-04-26 22:00 63.99172 -22.61064 169 ft 16 kts 90°
2026-04-26 22:00 63.99172 -22.60892 169 ft 17 kts 90°
2026-04-26 22:01 63.99172 -22.60786 170 ft 0 kts 90°
2026-04-26 22:02 63.99172 -22.60784 170 ft 1 kts 90°
2026-04-26 22:02 63.99172 -22.60734 172 ft 7 kts 90°
2026-04-26 22:02 63.99167 -22.60587 171 ft 10 kts 118°
2026-04-26 22:02 63.99091 -22.60545 170 ft 15 kts 180°
2026-04-26 22:03 63.98867 -22.60545 162 ft 66 kts 180°
2026-04-26 22:03 63.98154 -22.60543 152 ft 139 kts 180°
2026-04-26 22:03 63.97063 -22.60580 623 ft 162 kts 176°
2026-04-26 22:03 63.95970 -22.60563 1792 ft 152 kts 180°
2026-04-26 22:04 63.94860 -22.60319 2456 ft 172 kts 168°
2026-04-26 22:04 63.93666 -22.59256 2943 ft 196 kts 157°
2026-04-26 22:04 63.92364 -22.57843 3424 ft 218 kts 157°
2026-04-26 22:04 63.90957 -22.56339 4280 ft 223 kts 157°
2026-04-26 22:05 63.89544 -22.54845 5284 ft 230 kts 158°
2026-04-26 22:05 63.88035 -22.53267 5936 ft 248 kts 158°
2026-04-26 22:05 63.86434 -22.51601 6725 ft 256 kts 158°
2026-04-26 22:05 63.84797 -22.49903 7660 ft 261 kts 159°
2026-04-26 22:06 63.83149 -22.48197 8578 ft 265 kts 159°
2026-04-26 22:06 63.81455 -22.46449 9512 ft 269 kts 159°
2026-04-26 22:06 63.79735 -22.44678 10336 ft 275 kts 159°
2026-04-26 22:06 63.77938 -22.42830 10791 ft 294 kts 159°
2026-04-26 22:07 63.76014 -22.40855 11157 ft 314 kts 159°
2026-04-26 22:07 63.73959 -22.38746 11545 ft 332 kts 159°
2026-04-26 22:07 63.71807 -22.36542 12017 ft 345 kts 159°
2026-04-26 22:07 63.69588 -22.34272 12619 ft 354 kts 159°
2026-04-26 22:08 63.67339 -22.31930 13356 ft 359 kts 158°
2026-04-26 22:08 63.65074 -22.29475 14013 ft 364 kts 158°
2026-04-26 22:08 63.62806 -22.27028 14686 ft 366 kts 158°
2026-04-26 22:08 63.60498 -22.24548 15354 ft 369 kts 158°
2026-04-26 22:09 63.58167 -22.22050 16013 ft 372 kts 158°
2026-04-26 22:09 63.55820 -22.19539 16584 ft 376 kts 158°
2026-04-26 22:09 63.53440 -22.16998 17200 ft 379 kts 158°
2026-04-26 22:09 63.51043 -22.14444 17839 ft 382 kts 158°
2026-04-26 22:10 63.48628 -22.11876 18410 ft 386 kts 158°
2026-04-26 22:10 63.46196 -22.09297 18930 ft 389 kts 158°
2026-04-26 22:10 63.43738 -22.06692 19425 ft 392 kts 159°
2026-04-26 22:10 63.41261 -22.04073 19928 ft 395 kts 159°
2026-04-26 22:11 63.38788 -22.01463 20412 ft 399 kts 159°
2026-04-26 22:11 63.36270 -21.98811 20897 ft 402 kts 160°
2026-04-26 22:11 63.33731 -21.96140 21376 ft 405 kts 160°
2026-04-26 22:11 63.31168 -21.93451 21852 ft 409 kts 160°
2026-04-26 22:12 63.28581 -21.90741 22292 ft 412 kts 160°
2026-04-26 22:12 63.25966 -21.88009 22646 ft 418 kts 160°
2026-04-26 22:12 63.23324 -21.85253 23144 ft 420 kts 161°
2026-04-26 22:12 63.20661 -21.82481 23564 ft 424 kts 161°
2026-04-26 22:13 63.18011 -21.79727 23940 ft 427 kts 161°
2026-04-26 22:13 63.15312 -21.76929 24332 ft 429 kts 161°
2026-04-26 22:13 63.12598 -21.74120 24715 ft 432 kts 161°
2026-04-26 22:13 63.09867 -21.71291 25086 ft 435 kts 160°
2026-04-26 22:14 63.07295 -21.67568 25488 ft 450 kts 144°
2026-04-26 22:14 63.05108 -21.62528 25899 ft 457 kts 139°
2026-04-26 22:14 63.02990 -21.57385 26193 ft 461 kts 138°
2026-04-26 22:14 63.00844 -21.52116 26560 ft 463 kts 138°
2026-04-26 22:15 62.98690 -21.46797 26902 ft 466 kts 138°
2026-04-26 22:15 62.96521 -21.41437 27118 ft 473 kts 138°
2026-04-26 22:15 62.94325 -21.36017 27452 ft 474 kts 138°
2026-04-26 22:15 62.92123 -21.30597 27766 ft 478 kts 138°
2026-04-26 22:16 62.89901 -21.25139 28064 ft 480 kts 138°
2026-04-26 22:16 62.87663 -21.19658 28397 ft 483 kts 138°
2026-04-26 22:16 62.85414 -21.14160 28690 ft 486 kts 138°
2026-04-26 22:16 62.83149 -21.08638 28994 ft 488 kts 139°
2026-04-26 22:17 62.80900 -21.03168 29284 ft 491 kts 139°
2026-04-26 22:17 62.78607 -20.97606 29538 ft 493 kts 138°
2026-04-26 22:17 62.76297 -20.92016 29738 ft 498 kts 139°
2026-04-26 22:17 62.73970 -20.86401 30050 ft 499 kts 139°
2026-04-26 22:18 62.71632 -20.80773 30321 ft 501 kts 139°
2026-04-26 22:18 62.69283 -20.75134 30636 ft 501 kts 139°
2026-04-26 22:18 62.66938 -20.69515 30927 ft 502 kts 139°
2026-04-26 22:18 62.64607 -20.63946 31212 ft 503 kts 140°
2026-04-26 22:19 62.62247 -20.58323 31503 ft 504 kts 140°
2026-04-26 22:19 62.59878 -20.52693 31789 ft 505 kts 140°
2026-04-26 22:19 62.57508 -20.47073 32072 ft 505 kts 140°
2026-04-26 22:19 62.55131 -20.41452 32327 ft 506 kts 141°
2026-04-26 22:20 62.52740 -20.35810 32447 ft 511 kts 141°
2026-04-26 22:20 62.50326 -20.30131 32695 ft 512 kts 141°
2026-04-26 22:20 62.47905 -20.24449 32961 ft 513 kts 141°
2026-04-26 22:20 62.45479 -20.18770 33221 ft 514 kts 141°
2026-04-26 22:21 62.43044 -20.13080 33447 ft 516 kts 140°
2026-04-26 22:21 62.40634 -20.07461 33679 ft 517 kts 140°
2026-04-26 22:21 62.38178 -20.01767 33959 ft 516 kts 142°
2026-04-26 22:21 62.35574 -19.96524 34197 ft 511 kts 146°
2026-04-26 22:22 62.32933 -19.91406 34488 ft 509 kts 146°
2026-04-26 22:22 62.30290 -19.86332 34771 ft 508 kts 146°
2026-04-26 22:22 62.27644 -19.81279 34949 ft 509 kts 146°
2026-04-26 22:22 62.24989 -19.76222 35159 ft 509 kts 145°
2026-04-26 22:23 62.19702 -19.66193 35135 ft 505 kts 146°
2026-04-26 22:23 62.14461 -19.56297 35146 ft 506 kts 146°
2026-04-26 22:24 62.09175 -19.46364 35150 ft 505 kts 146°
2026-04-26 22:24 62.03880 -19.36462 35134 ft 508 kts 146°
2026-04-26 22:25 61.98535 -19.26514 35158 ft 510 kts 146°
2026-04-26 22:25 61.93184 -19.16603 35162 ft 510 kts 146°
2026-04-26 22:26 61.87860 -19.06790 35168 ft 510 kts 146°
2026-04-26 22:26 61.82498 -18.96954 35167 ft 510 kts 146°
2026-04-26 22:27 61.77125 -18.87144 35173 ft 511 kts 146°
2026-04-26 22:27 61.71732 -18.77348 35184 ft 512 kts 144°
2026-04-26 22:28 61.66325 -18.67571 35180 ft 513 kts 145°
2026-04-26 22:28 61.60901 -18.57809 35187 ft 513 kts 145°
2026-04-26 22:29 61.55473 -18.48082 35157 ft 513 kts 144°
2026-04-26 22:29 61.50022 -18.38487 35185 ft 512 kts 150°
2026-04-26 22:30 61.44151 -18.30159 35208 ft 510 kts 152°
2026-04-26 22:30 61.38255 -18.21937 35199 ft 509 kts 152°
2026-04-26 22:31 61.32360 -18.13762 35194 ft 509 kts 152°
2026-04-26 22:31 61.26485 -18.05653 35203 ft 511 kts 152°
2026-04-26 22:32 61.20554 -17.97504 35210 ft 511 kts 152°
2026-04-26 22:32 61.14618 -17.89386 35210 ft 511 kts 152°
2026-04-26 22:33 61.05712 -17.77275 35216 ft 511 kts 152°
2026-04-26 22:34 60.99755 -17.69220 35226 ft 512 kts 152°
2026-04-26 22:34 60.93827 -17.61242 35220 ft 512 kts 152°
2026-04-26 22:35 60.87858 -17.53244 35231 ft 512 kts 152°
2026-04-26 22:35 60.81890 -17.45284 35231 ft 512 kts 152°
2026-04-26 22:36 60.75927 -17.37365 35222 ft 507 kts 152°
2026-04-26 22:36 60.70011 -17.29546 35232 ft 505 kts 152°
2026-04-26 22:37 60.64135 -17.21813 35242 ft 508 kts 152°
2026-04-26 22:37 60.58174 -17.14003 35241 ft 509 kts 152°
2026-04-26 22:38 60.52201 -17.06212 35239 ft 509 kts 152°
2026-04-26 22:38 60.46226 -16.98453 35241 ft 509 kts 152°
2026-04-26 22:39 60.40293 -16.90782 35245 ft 509 kts 152°
2026-04-26 22:39 60.34317 -16.83090 35248 ft 509 kts 152°
2026-04-26 22:40 60.28335 -16.75424 35248 ft 509 kts 152°
2026-04-26 22:40 60.22353 -16.67791 35258 ft 509 kts 152°
2026-04-26 22:41 60.16354 -16.60170 35257 ft 509 kts 152°
2026-04-26 22:41 60.10403 -16.52644 35261 ft 509 kts 152°
2026-04-26 22:42 60.04410 -16.45096 35269 ft 509 kts 152°
2026-04-26 22:42 59.98413 -16.37577 35254 ft 509 kts 152°
2026-04-26 22:43 59.92400 -16.30070 35270 ft 508 kts 152°
2026-04-26 22:43 59.86437 -16.22658 35279 ft 508 kts 152°
2026-04-26 22:44 59.80429 -16.15221 35280 ft 508 kts 152°
2026-04-26 22:44 59.74422 -16.07817 35271 ft 508 kts 152°
2026-04-26 22:45 59.68412 -16.00442 35287 ft 508 kts 152°
2026-04-26 22:45 59.62396 -15.93092 35288 ft 508 kts 152°
2026-04-26 22:46 59.56373 -15.85763 35290 ft 508 kts 152°
2026-04-26 22:46 59.50356 -15.78474 35270 ft 508 kts 152°
2026-04-26 22:47 59.44334 -15.71205 35307 ft 509 kts 152°
2026-04-26 22:47 59.38268 -15.63921 35300 ft 511 kts 152°
2026-04-26 22:48 59.32198 -15.56659 35300 ft 511 kts 152°
2026-04-26 22:48 59.26156 -15.49462 35300 ft 511 kts 152°
2026-04-26 22:49 59.20060 -15.42232 35311 ft 511 kts 152°
2026-04-26 22:49 59.13965 -15.35032 35312 ft 511 kts 152°
2026-04-26 22:50 59.07907 -15.27907 35314 ft 511 kts 152°
2026-04-26 22:50 59.01818 -15.20774 35316 ft 511 kts 152°
2026-04-26 22:51 58.95727 -15.13670 35312 ft 511 kts 152°
2026-04-26 22:51 58.90661 -15.07783 35320 ft 511 kts 152°
2026-04-26 22:52 58.84564 -15.00725 35317 ft 510 kts 152°
2026-04-26 22:52 58.77473 -14.92554 35325 ft 510 kts 152°
2026-04-26 22:53 58.72358 -14.86682 35312 ft 510 kts 152°
2026-04-26 22:53 58.66296 -14.79753 35339 ft 510 kts 152°
2026-04-26 22:54 58.60190 -14.72800 35336 ft 510 kts 152°
2026-04-26 22:54 58.54088 -14.65881 35336 ft 510 kts 152°
2026-04-26 22:55 58.47977 -14.58980 35331 ft 510 kts 152°
2026-04-26 22:55 58.41862 -14.52102 35347 ft 509 kts 152°
2026-04-26 22:56 58.35785 -14.45295 35346 ft 509 kts 152°
2026-04-26 22:56 58.29667 -14.38470 35345 ft 509 kts 152°
2026-04-26 22:57 58.23530 -14.31651 35341 ft 514 kts 152°
2026-04-26 22:57 58.17317 -14.24775 35348 ft 517 kts 152°
2026-04-26 22:58 58.11145 -14.17974 35356 ft 516 kts 152°
2026-04-26 22:58 58.04935 -14.11156 35354 ft 516 kts 152°
2026-04-26 22:59 57.98715 -14.04357 35354 ft 516 kts 152°
2026-04-26 22:59 57.92491 -13.97581 35362 ft 516 kts 152°
2026-04-26 23:00 57.86267 -13.90831 35367 ft 516 kts 152°
2026-04-26 23:00 57.80037 -13.84103 35364 ft 516 kts 152°
2026-04-26 23:01 57.73849 -13.77447 35366 ft 516 kts 152°
2026-04-26 23:01 57.67621 -13.70774 35363 ft 515 kts 152°
2026-04-26 23:02 57.61387 -13.64122 35376 ft 515 kts 152°
2026-04-26 23:02 57.55187 -13.57532 35375 ft 515 kts 152°
2026-04-26 23:03 57.48944 -13.50923 35380 ft 515 kts 152°
2026-04-26 23:03 57.42716 -13.44353 35379 ft 514 kts 152°
2026-04-26 23:04 57.36501 -13.37820 35379 ft 513 kts 152°
2026-04-26 23:04 57.30317 -13.31345 35384 ft 513 kts 152°
2026-04-26 23:05 57.24098 -13.24857 35386 ft 513 kts 152°
2026-04-26 23:05 57.17876 -13.18391 35391 ft 513 kts 152°
2026-04-26 23:06 57.11659 -13.11956 35392 ft 512 kts 152°
2026-04-26 23:06 57.05424 -13.05526 35391 ft 517 kts 152°
2026-04-26 23:07 56.99122 -12.99069 35398 ft 518 kts 152°
2026-04-26 23:07 56.92878 -12.92671 35399 ft 517 kts 151°
2026-04-26 23:08 56.86584 -12.86229 35400 ft 517 kts 151°
2026-04-26 23:08 56.80252 -12.80032 35388 ft 515 kts 161°
2026-04-26 23:09 56.73428 -12.76128 35373 ft 514 kts 165°
2026-04-26 23:09 56.66644 -12.72280 35414 ft 513 kts 165°
2026-04-26 23:10 56.59825 -12.68458 35410 ft 512 kts 165°
2026-04-26 23:10 56.53008 -12.64652 35412 ft 513 kts 165°
2026-04-26 23:11 56.46180 -12.60855 35400 ft 512 kts 165°
2026-04-26 23:11 56.39365 -12.57079 35415 ft 511 kts 165°
2026-04-26 23:12 56.32563 -12.53325 35414 ft 511 kts 165°
2026-04-26 23:12 56.25799 -12.49605 35424 ft 511 kts 165°
2026-04-26 23:13 56.19001 -12.45879 35409 ft 510 kts 165°
2026-04-26 23:13 56.12209 -12.42173 35421 ft 510 kts 165°
2026-04-26 23:14 56.05421 -12.38481 35425 ft 510 kts 165°
2026-04-26 23:14 55.98623 -12.34797 35428 ft 509 kts 165°
2026-04-26 23:15 55.91834 -12.31132 35421 ft 509 kts 165°
2026-04-26 23:15 55.85095 -12.27507 35431 ft 508 kts 165°
2026-04-26 23:16 55.78322 -12.23877 35428 ft 508 kts 165°
2026-04-26 23:16 55.71537 -12.20254 35430 ft 508 kts 165°
2026-04-26 23:17 55.64763 -12.16649 35435 ft 508 kts 165°
2026-04-26 23:17 55.57993 -12.13060 35443 ft 507 kts 165°
2026-04-26 23:18 55.51255 -12.09500 35440 ft 507 kts 165°
2026-04-26 23:18 55.44481 -12.05935 35450 ft 508 kts 165°
2026-04-26 23:19 55.37712 -12.02385 35441 ft 508 kts 165°
2026-04-26 23:19 55.30934 -11.98842 35441 ft 507 kts 165°
2026-04-26 23:20 55.24162 -11.95316 35444 ft 507 kts 165°
2026-04-26 23:20 55.17394 -11.91803 35434 ft 507 kts 165°
2026-04-26 23:21 55.10636 -11.88309 35449 ft 506 kts 165°
2026-04-26 23:21 55.03869 -11.84823 35449 ft 506 kts 165°
2026-04-26 23:22 54.97152 -11.81374 35450 ft 506 kts 165°
2026-04-26 23:22 54.90392 -11.77915 35448 ft 505 kts 165°
2026-04-26 23:23 54.84044 -11.74678 35455 ft 505 kts 165°
2026-04-26 23:23 54.77300 -11.71251 35455 ft 505 kts 165°
2026-04-26 23:24 54.70583 -11.67849 35452 ft 505 kts 165°
2026-04-26 23:24 54.63840 -11.64446 35459 ft 504 kts 165°
2026-04-26 23:25 54.57110 -11.61061 35459 ft 504 kts 164°
2026-04-26 23:25 54.50370 -11.57684 35460 ft 504 kts 165°
2026-04-26 23:26 54.43672 -11.54337 35454 ft 503 kts 164°
2026-04-26 23:26 54.36954 -11.50993 35462 ft 502 kts 164°
2026-04-26 23:27 54.30227 -11.47656 35462 ft 502 kts 164°
2026-04-26 23:27 54.23511 -11.44336 35464 ft 502 kts 164°
2026-04-26 23:28 54.16792 -11.41025 35463 ft 501 kts 164°
2026-04-26 23:28 54.10126 -11.37752 35468 ft 501 kts 164°
2026-04-26 23:29 54.03415 -11.34467 35469 ft 501 kts 164°
2026-04-26 23:29 53.96704 -11.31194 35471 ft 501 kts 164°
2026-04-26 23:30 53.89999 -11.27934 35473 ft 500 kts 164°
2026-04-26 23:30 53.83353 -11.24713 35475 ft 500 kts 164°
2026-04-26 23:31 53.76659 -11.21480 35477 ft 500 kts 164°
2026-04-26 23:31 53.69965 -11.18258 35469 ft 500 kts 164°
2026-04-26 23:32 53.63286 -11.15054 35468 ft 499 kts 164°
2026-04-26 23:32 53.56589 -11.11852 35479 ft 499 kts 164°
2026-04-26 23:33 53.49900 -11.08664 35479 ft 499 kts 164°
2026-04-26 23:33 53.43221 -11.05491 35469 ft 498 kts 164°
2026-04-26 23:34 53.36543 -11.02329 35479 ft 498 kts 164°
2026-04-26 23:34 53.29863 -10.99177 35482 ft 498 kts 164°
2026-04-26 23:35 53.23225 -10.96054 35489 ft 498 kts 163°
2026-04-26 23:35 53.16554 -10.92925 35480 ft 497 kts 163°
2026-04-26 23:36 53.09898 -10.89814 35483 ft 497 kts 163°
2026-04-26 23:36 53.03239 -10.86712 35487 ft 497 kts 163°
2026-04-26 23:37 52.96571 -10.83616 35479 ft 497 kts 163°
2026-04-26 23:37 52.91039 -10.81054 35487 ft 497 kts 164°
2026-04-26 23:38 52.83250 -10.77459 35488 ft 497 kts 164°
2026-04-26 23:38 52.76631 -10.74414 35490 ft 497 kts 164°
2026-04-26 23:39 52.69974 -10.71362 35483 ft 496 kts 163°
2026-04-26 23:39 52.63315 -10.68318 35488 ft 496 kts 164°
2026-04-26 23:40 52.56661 -10.65287 35486 ft 496 kts 164°
2026-04-26 23:40 52.51131 -10.62774 35490 ft 496 kts 163°
2026-04-26 23:41 52.43392 -10.59269 35493 ft 495 kts 163°
2026-04-26 23:41 52.37825 -10.56756 35495 ft 495 kts 163°
2026-04-26 23:42 52.31222 -10.53783 35492 ft 495 kts 163°
2026-04-26 23:42 52.21267 -10.49319 35491 ft 493 kts 163°
2026-04-26 23:43 52.14643 -10.46360 35484 ft 493 kts 163°
2026-04-26 23:43 52.08054 -10.43426 35486 ft 493 kts 163°
2026-04-26 23:44 52.01435 -10.40487 35486 ft 492 kts 163°
2026-04-26 23:44 51.94832 -10.37564 35492 ft 492 kts 164°
2026-04-26 23:45 51.88223 -10.34648 35489 ft 492 kts 164°
2026-04-26 23:45 51.81647 -10.31756 35496 ft 491 kts 164°
2026-04-26 23:46 51.75061 -10.28866 35480 ft 490 kts 164°
2026-04-26 23:46 51.68468 -10.25984 35477 ft 490 kts 164°
2026-04-26 23:47 51.61884 -10.23113 35473 ft 490 kts 164°
2026-04-26 23:47 51.55303 -10.20253 35476 ft 489 kts 164°
2026-04-26 23:48 51.48768 -10.17421 35475 ft 489 kts 164°
2026-04-26 23:48 51.42186 -10.14577 35475 ft 489 kts 164°
2026-04-26 23:49 51.35611 -10.11745 35479 ft 489 kts 164°
2026-04-26 23:49 51.29044 -10.08924 35473 ft 488 kts 164°
2026-04-26 23:50 51.22488 -10.06117 35474 ft 488 kts 164°
2026-04-26 23:50 51.15924 -10.03315 35471 ft 488 kts 164°
2026-04-26 23:51 51.09368 -10.00523 35471 ft 487 kts 164°
2026-04-26 23:51 51.02864 -9.97763 35472 ft 487 kts 164°
2026-04-26 23:52 50.96307 -9.94988 35472 ft 487 kts 164°
2026-04-26 23:52 50.89751 -9.92222 35474 ft 487 kts 164°
2026-04-26 23:53 50.83208 -9.89468 35472 ft 486 kts 164°
2026-04-26 23:53 50.76659 -9.86721 35472 ft 486 kts 164°
2026-04-26 23:54 50.70115 -9.83983 35471 ft 486 kts 164°
2026-04-26 23:54 50.63616 -9.81272 35469 ft 486 kts 164°
2026-04-26 23:55 50.57071 -9.78550 35468 ft 486 kts 164°
2026-04-26 23:55 50.50525 -9.75835 35469 ft 486 kts 164°
2026-04-26 23:56 50.43978 -9.73127 35474 ft 486 kts 164°
2026-04-26 23:56 50.37434 -9.70429 35471 ft 486 kts 164°
2026-04-26 23:57 50.30887 -9.67737 35472 ft 486 kts 164°
2026-04-26 23:57 50.24332 -9.65049 35471 ft 486 kts 164°
2026-04-26 23:58 50.17824 -9.62388 35469 ft 486 kts 164°
2026-04-26 23:58 50.11272 -9.59717 35465 ft 486 kts 164°
2026-04-26 23:59 50.04726 -9.57056 35466 ft 486 kts 164°
2026-04-26 23:59 49.98175 -9.54400 35468 ft 486 kts 165°
2026-04-27 00:00 49.91637 -9.51757 35465 ft 486 kts 165°
2026-04-27 00:00 49.85125 -9.49132 35465 ft 486 kts 165°
2026-04-27 00:01 49.78571 -9.46498 35466 ft 486 kts 165°
2026-04-27 00:01 49.72021 -9.43871 35464 ft 486 kts 165°
2026-04-27 00:02 49.65460 -9.41248 35463 ft 486 kts 165°
2026-04-27 00:02 49.58898 -9.38632 35466 ft 486 kts 165°
2026-04-27 00:03 49.52388 -9.36044 35460 ft 486 kts 165°
2026-04-27 00:03 49.45824 -9.33442 35460 ft 486 kts 165°
2026-04-27 00:04 49.39263 -9.30847 35459 ft 486 kts 165°
2026-04-27 00:04 49.32713 -9.28263 35459 ft 485 kts 165°
2026-04-27 00:05 49.26214 -9.25706 35460 ft 484 kts 165°
2026-04-27 00:05 49.19682 -9.23144 35459 ft 485 kts 165°
2026-04-27 00:06 49.13146 -9.20586 35463 ft 484 kts 165°
2026-04-27 00:06 49.06622 -9.18040 35461 ft 483 kts 165°
2026-04-27 00:07 49.00103 -9.15503 35463 ft 483 kts 165°
2026-04-27 00:07 48.93585 -9.12973 35460 ft 483 kts 165°
2026-04-27 00:08 48.87118 -9.10470 35454 ft 482 kts 165°
2026-04-27 00:08 48.80620 -9.07961 35453 ft 482 kts 165°
2026-04-27 00:09 48.74115 -9.05457 35457 ft 482 kts 165°
2026-04-27 00:09 48.67614 -9.02960 35450 ft 481 kts 165°
2026-04-27 00:10 48.61128 -9.00494 35449 ft 481 kts 168°
2026-04-27 00:10 48.57804 -9.00015 35447 ft 478 kts 182°
2026-04-27 00:10 48.54513 -9.00056 35433 ft 481 kts 180°
2026-04-27 00:11 48.47811 -9.00005 35457 ft 481 kts 180°
2026-04-27 00:11 48.41118 -9.00000 35453 ft 481 kts 180°
2026-04-27 00:12 48.34413 -9.00000 35450 ft 481 kts 180°
2026-04-27 00:12 48.27766 -9.00001 35454 ft 480 kts 180°
2026-04-27 00:13 48.21108 -9.00000 35446 ft 477 kts 180°
2026-04-27 00:13 48.14458 -9.00000 35453 ft 478 kts 180°
2026-04-27 00:14 48.07809 -9.00000 35448 ft 478 kts 181°
2026-04-27 00:14 48.01152 -9.00001 35446 ft 476 kts 181°
2026-04-27 00:15 47.94512 -9.00000 35448 ft 477 kts 181°
2026-04-27 00:15 47.87917 -9.00000 35450 ft 477 kts 181°
2026-04-27 00:16 47.81289 -9.00001 35449 ft 475 kts 181°
2026-04-27 00:16 47.74682 -9.00001 35444 ft 475 kts 181°
2026-04-27 00:17 47.68073 -9.00001 35443 ft 474 kts 181°
2026-04-27 00:17 47.61475 -9.00001 35444 ft 473 kts 181°
2026-04-27 00:18 47.54942 -9.00001 35439 ft 471 kts 181°
2026-04-27 00:18 47.48369 -9.00000 35442 ft 472 kts 181°
2026-04-27 00:19 47.41798 -9.00000 35439 ft 470 kts 182°
2026-04-27 00:19 47.35270 -9.00000 35441 ft 468 kts 181°
2026-04-27 00:20 47.28748 -9.00001 35440 ft 469 kts 182°
2026-04-27 00:20 47.22219 -9.00000 35436 ft 468 kts 182°
2026-04-27 00:21 47.15786 -9.00000 35433 ft 464 kts 182°
2026-04-27 00:21 47.09309 -9.00000 35436 ft 465 kts 182°
2026-04-27 00:22 47.02832 -9.00000 35422 ft 465 kts 182°
2026-04-27 00:22 46.96416 -9.00000 35432 ft 462 kts 182°
2026-04-27 00:23 46.89979 -9.00000 35434 ft 462 kts 182°
2026-04-27 00:23 46.83545 -9.00001 35431 ft 462 kts 182°
2026-04-27 00:24 46.77086 -9.00000 35432 ft 464 kts 182°
2026-04-27 00:24 46.70666 -9.00000 35430 ft 464 kts 182°
2026-04-27 00:25 46.64207 -9.00000 35431 ft 464 kts 182°
2026-04-27 00:25 46.57753 -9.00001 35417 ft 461 kts 182°
2026-04-27 00:26 46.51353 -9.00000 35424 ft 460 kts 182°
2026-04-27 00:26 46.44948 -9.00000 35424 ft 460 kts 182°
2026-04-27 00:27 46.38543 -9.00000 35413 ft 460 kts 182°
2026-04-27 00:27 46.32180 -9.00000 35419 ft 460 kts 182°
2026-04-27 00:28 46.25769 -9.00000 35418 ft 460 kts 182°
2026-04-27 00:28 46.19370 -9.00001 35418 ft 459 kts 182°
2026-04-27 00:29 46.12987 -9.00001 35418 ft 458 kts 182°
2026-04-27 00:29 46.06605 -9.00000 35406 ft 458 kts 182°
2026-04-27 00:30 46.00230 -9.00001 35402 ft 458 kts 183°
2026-04-27 00:30 45.94954 -9.00000 35411 ft 454 kts 183°
2026-04-27 00:31 45.87601 -9.00000 35410 ft 454 kts 183°
2026-04-27 00:31 45.82306 -9.00000 35414 ft 454 kts 183°
2026-04-27 00:32 45.76035 -9.00000 35410 ft 451 kts 183°
2026-04-27 00:32 45.69768 -9.00000 35409 ft 450 kts 183°
2026-04-27 00:33 45.63490 -9.00000 35409 ft 450 kts 183°
2026-04-27 00:33 45.57225 -9.00000 35400 ft 449 kts 184°
2026-04-27 00:34 45.50982 -9.00000 35404 ft 453 kts 183°
2026-04-27 00:34 45.44666 -9.00000 35403 ft 453 kts 183°
2026-04-27 00:35 45.38365 -9.00000 35397 ft 451 kts 184°
2026-04-27 00:35 45.32109 -9.00000 35397 ft 449 kts 184°
2026-04-27 00:36 45.25887 -9.00000 35395 ft 449 kts 184°
2026-04-27 00:36 45.19615 -9.00000 35390 ft 448 kts 184°
2026-04-27 00:37 45.13381 -9.00000 35393 ft 448 kts 184°
2026-04-27 00:37 45.07190 -9.00000 35390 ft 448 kts 184°
2026-04-27 00:38 45.00955 -8.99996 35377 ft 448 kts 183°
2026-04-27 00:38 44.94712 -8.99111 35385 ft 451 kts 178°
2026-04-27 00:39 44.88470 -8.98243 35386 ft 451 kts 179°
2026-04-27 00:39 44.82213 -8.97407 35372 ft 450 kts 179°
2026-04-27 00:40 44.76018 -8.96582 35377 ft 449 kts 179°
2026-04-27 00:40 44.69791 -8.95756 35378 ft 449 kts 179°
2026-04-27 00:41 44.63566 -8.94932 35364 ft 449 kts 179°
2026-04-27 00:41 44.57344 -8.94110 35374 ft 448 kts 179°
2026-04-27 00:42 44.51162 -8.93295 35376 ft 448 kts 179°
2026-04-27 00:42 44.44945 -8.92478 35367 ft 448 kts 179°
2026-04-27 00:43 44.38726 -8.91662 35367 ft 448 kts 179°
2026-04-27 00:43 44.32513 -8.90848 35365 ft 448 kts 179°
2026-04-27 00:44 44.26298 -8.90036 35346 ft 448 kts 179°
2026-04-27 00:44 44.20086 -8.89226 35360 ft 448 kts 179°
2026-04-27 00:45 44.13922 -8.88424 35360 ft 448 kts 179°
2026-04-27 00:45 44.07717 -8.87618 35354 ft 448 kts 179°
2026-04-27 00:46 44.01508 -8.86813 35352 ft 448 kts 179°
2026-04-27 00:46 43.95286 -8.86009 35349 ft 448 kts 179°
2026-04-27 00:47 43.89075 -8.85207 35345 ft 448 kts 179°
2026-04-27 00:47 43.82916 -8.84414 35339 ft 447 kts 179°
2026-04-27 00:48 43.76713 -8.83617 35341 ft 447 kts 179°
2026-04-27 00:48 43.70514 -8.82822 35334 ft 447 kts 179°
2026-04-27 00:49 43.64317 -8.82029 35328 ft 446 kts 179°
2026-04-27 00:49 43.58134 -8.81240 35332 ft 446 kts 179°
2026-04-27 00:50 43.48873 -8.80060 35308 ft 446 kts 180°
2026-04-27 00:51 43.42735 -8.79280 35321 ft 444 kts 179°
2026-04-27 00:51 43.36572 -8.78498 35321 ft 444 kts 179°
2026-04-27 00:52 43.30399 -8.77717 35314 ft 444 kts 179°
2026-04-27 00:52 43.24244 -8.76940 35313 ft 443 kts 179°
2026-04-27 00:53 43.18106 -8.76167 35315 ft 443 kts 179°
2026-04-27 00:53 43.12011 -8.75400 35311 ft 443 kts 179°
2026-04-27 00:54 43.05867 -8.74629 35303 ft 443 kts 179°
2026-04-27 00:54 42.99722 -8.73859 35301 ft 443 kts 179°
2026-04-27 00:55 42.93582 -8.73092 35295 ft 443 kts 179°
2026-04-27 00:55 42.87448 -8.72326 35270 ft 443 kts 179°
2026-04-27 00:56 42.81290 -8.71559 35279 ft 444 kts 179°
2026-04-27 00:56 42.75169 -8.70799 35269 ft 444 kts 179°
2026-04-27 00:57 42.69016 -8.70036 35251 ft 444 kts 179°
2026-04-27 00:57 42.62844 -8.69272 35252 ft 445 kts 178°
2026-04-27 00:58 42.56674 -8.68510 35254 ft 445 kts 178°
2026-04-27 00:58 42.50539 -8.67754 35241 ft 445 kts 178°
2026-04-27 00:59 42.44373 -8.66995 35233 ft 445 kts 178°
2026-04-27 00:59 42.38207 -8.66238 35219 ft 445 kts 178°
2026-04-27 01:00 42.32037 -8.65482 35221 ft 445 kts 178°
2026-04-27 01:00 42.25875 -8.64728 35214 ft 444 kts 178°
2026-04-27 01:01 42.19709 -8.63975 35215 ft 444 kts 178°
2026-04-27 01:01 42.13541 -8.63224 35222 ft 445 kts 178°
2026-04-27 01:02 42.07421 -8.62480 35205 ft 445 kts 178°
2026-04-27 01:02 42.01248 -8.61730 35216 ft 445 kts 178°
2026-04-27 01:03 41.95073 -8.60982 35207 ft 445 kts 178°
2026-04-27 01:03 41.88900 -8.60235 35209 ft 445 kts 178°
2026-04-27 01:04 41.82721 -8.59786 35213 ft 444 kts 181°
2026-04-27 01:04 41.76532 -8.59609 35209 ft 444 kts 181°
2026-04-27 01:05 41.70343 -8.59394 35202 ft 445 kts 181°
2026-04-27 01:05 41.64153 -8.59175 35192 ft 445 kts 180°
2026-04-27 01:06 41.57975 -8.58957 35206 ft 447 kts 180°
2026-04-27 01:06 41.51762 -8.58738 35198 ft 446 kts 180°
2026-04-27 01:07 41.45551 -8.58519 35197 ft 447 kts 180°
2026-04-27 01:07 41.39323 -8.58301 35193 ft 448 kts 180°
2026-04-27 01:08 41.33084 -8.58082 35190 ft 448 kts 180°
2026-04-27 01:08 41.26845 -8.57864 35193 ft 448 kts 180°
2026-04-27 01:09 41.20604 -8.57646 35188 ft 449 kts 180°
2026-04-27 01:09 41.14391 -8.57430 35192 ft 449 kts 180°
2026-04-27 01:10 41.08137 -8.57212 35195 ft 449 kts 180°
2026-04-27 01:10 41.01881 -8.56995 35190 ft 450 kts 181°
2026-04-27 01:11 40.95610 -8.56778 35203 ft 451 kts 181°
2026-04-27 01:11 40.89326 -8.56561 35202 ft 451 kts 181°
2026-04-27 01:12 40.83048 -8.56344 35198 ft 451 kts 181°
2026-04-27 01:12 40.76810 -8.56129 35198 ft 451 kts 181°
2026-04-27 01:13 40.70529 -8.55913 35200 ft 451 kts 181°
2026-04-27 01:13 40.64243 -8.55698 35200 ft 452 kts 181°
2026-04-27 01:14 40.57954 -8.55483 35190 ft 452 kts 181°
2026-04-27 01:14 40.51664 -8.55267 35198 ft 452 kts 181°
2026-04-27 01:15 40.45375 -8.55053 35197 ft 452 kts 181°
2026-04-27 01:15 40.39088 -8.54838 35199 ft 452 kts 181°
2026-04-27 01:16 40.32842 -8.54626 35204 ft 452 kts 181°
2026-04-27 01:16 40.26557 -8.54413 35199 ft 452 kts 181°
2026-04-27 01:17 40.20245 -8.54199 35199 ft 452 kts 181°
2026-04-27 01:17 40.13955 -8.53987 35196 ft 452 kts 181°
2026-04-27 01:18 40.07676 -8.53775 35198 ft 451 kts 181°
2026-04-27 01:18 40.01435 -8.53560 35201 ft 451 kts 181°
2026-04-27 01:19 39.95160 -8.53331 35201 ft 451 kts 181°
2026-04-27 01:19 39.88883 -8.53124 35195 ft 451 kts 181°
2026-04-27 01:20 39.82606 -8.52929 35192 ft 451 kts 181°
2026-04-27 01:20 39.77344 -8.52766 35194 ft 451 kts 181°
2026-04-27 01:21 39.71065 -8.52571 35184 ft 451 kts 181°
2026-04-27 01:21 39.64827 -8.52392 35189 ft 452 kts 181°
2026-04-27 01:22 39.58529 -8.52213 35183 ft 452 kts 181°
2026-04-27 01:22 39.52242 -8.52035 35179 ft 452 kts 181°
2026-04-27 01:23 39.45945 -8.51865 35175 ft 452 kts 181°
2026-04-27 01:23 39.39655 -8.51708 35171 ft 452 kts 181°
2026-04-27 01:24 39.33398 -8.51552 35168 ft 452 kts 181°
2026-04-27 01:24 39.27107 -8.51395 35170 ft 452 kts 181°
2026-04-27 01:25 39.20814 -8.51247 35163 ft 452 kts 181°
2026-04-27 01:25 39.14527 -8.51102 35163 ft 451 kts 181°
2026-04-27 01:26 39.08272 -8.50958 35158 ft 451 kts 181°
2026-04-27 01:26 39.01981 -8.50815 35155 ft 451 kts 181°
2026-04-27 01:27 38.95716 -8.50687 35157 ft 450 kts 181°
2026-04-27 01:27 38.89449 -8.50556 35156 ft 450 kts 181°
2026-04-27 01:28 38.83220 -8.50426 35158 ft 450 kts 181°
2026-04-27 01:28 38.76962 -8.50309 35151 ft 449 kts 181°
2026-04-27 01:29 38.70705 -8.50200 35152 ft 449 kts 181°
2026-04-27 01:29 38.64451 -8.50091 35153 ft 449 kts 181°
2026-04-27 01:30 38.58191 -8.49982 35147 ft 449 kts 181°
2026-04-27 01:30 38.51949 -8.49898 35149 ft 448 kts 181°
2026-04-27 01:31 38.45717 -8.49819 35154 ft 448 kts 181°
2026-04-27 01:31 38.39527 -8.49740 35150 ft 448 kts 181°
2026-04-27 01:32 38.33296 -8.49665 35150 ft 447 kts 181°
2026-04-27 01:32 38.27082 -8.49622 35150 ft 446 kts 181°
2026-04-27 01:33 38.20869 -8.49580 35150 ft 446 kts 181°
2026-04-27 01:33 38.14665 -8.49541 35150 ft 446 kts 181°
2026-04-27 01:34 38.08453 -8.49503 35149 ft 446 kts 181°
2026-04-27 01:34 38.02289 -8.49464 35148 ft 446 kts 181°
2026-04-27 01:35 37.96083 -8.49426 35147 ft 446 kts 181°
2026-04-27 01:35 37.89882 -8.49388 35155 ft 446 kts 181°
2026-04-27 01:36 37.83674 -8.49374 35150 ft 445 kts 181°
2026-04-27 01:36 37.77471 -8.49375 35150 ft 445 kts 181°
2026-04-27 01:37 37.71570 -8.49376 35151 ft 445 kts 181°
2026-04-27 01:37 37.65367 -8.49379 34954 ft 445 kts 181°
2026-04-27 01:37 37.62271 -8.49386 34657 ft 442 kts 181°
2026-04-27 01:38 37.59218 -8.49397 34164 ft 436 kts 181°
2026-04-27 01:38 37.56233 -8.49414 33540 ft 434 kts 181°
2026-04-27 01:38 37.53226 -8.49429 32899 ft 432 kts 181°
2026-04-27 01:38 37.50239 -8.49672 32256 ft 429 kts 192°
2026-04-27 01:39 37.47451 -8.50921 31628 ft 426 kts 210°
2026-04-27 01:39 37.45095 -8.53162 31021 ft 424 kts 226°
2026-04-27 01:39 37.43396 -8.56176 30435 ft 423 kts 243°
2026-04-27 01:39 37.42286 -8.59598 29820 ft 417 kts 249°
2026-04-27 01:40 37.41296 -8.63015 29157 ft 415 kts 249°
2026-04-27 01:40 37.40313 -8.66410 28496 ft 412 kts 249°
2026-04-27 01:40 37.39331 -8.69795 27849 ft 412 kts 249°
2026-04-27 01:40 37.38351 -8.73190 27217 ft 412 kts 249°
2026-04-27 01:41 37.37373 -8.76578 26595 ft 412 kts 249°
2026-04-27 01:41 37.36391 -8.79964 25991 ft 412 kts 249°
2026-04-27 01:41 37.35406 -8.83346 25394 ft 412 kts 249°
2026-04-27 01:41 37.34418 -8.86724 24809 ft 412 kts 249°
2026-04-27 01:42 37.33426 -8.90102 24231 ft 411 kts 249°
2026-04-27 01:42 37.32433 -8.93467 23672 ft 411 kts 249°
2026-04-27 01:42 37.31437 -8.96832 23014 ft 411 kts 249°
2026-04-27 01:42 37.30462 -9.00118 22361 ft 400 kts 249°
2026-04-27 01:43 37.29502 -9.03348 21737 ft 390 kts 249°
2026-04-27 01:43 37.28564 -9.06502 21114 ft 380 kts 249°
2026-04-27 01:43 37.27648 -9.09581 20511 ft 373 kts 249°
2026-04-27 01:43 37.26756 -9.12602 19917 ft 366 kts 249°
2026-04-27 01:44 37.25870 -9.15594 19330 ft 364 kts 249°
2026-04-27 01:44 37.24988 -9.18562 18754 ft 361 kts 249°
2026-04-27 01:44 37.24420 -9.21597 18154 ft 357 kts 267°
2026-04-27 01:44 37.24724 -9.24673 17502 ft 356 kts 287°
2026-04-27 01:45 37.25777 -9.27441 17289 ft 354 kts 303°
2026-04-27 01:45 37.27473 -9.29769 17001 ft 370 kts 322°
2026-04-27 01:45 37.29773 -9.31328 16746 ft 385 kts 342°
2026-04-27 01:45 37.32443 -9.31819 16513 ft 392 kts
2026-04-27 01:46 37.35176 -9.31540 16278 ft 396 kts
2026-04-27 01:46 37.37928 -9.31344 16058 ft 396 kts
2026-04-27 01:46 37.40642 -9.31167 15853 ft 395 kts
2026-04-27 01:46 37.43380 -9.30993 15648 ft 393 kts
2026-04-27 01:47 37.46112 -9.30820 15444 ft 392 kts
2026-04-27 01:47 37.48834 -9.30650 15243 ft 390 kts
2026-04-27 01:47 37.51541 -9.30480 15047 ft 388 kts
2026-04-27 01:47 37.54240 -9.30311 14849 ft 387 kts
2026-04-27 01:48 37.56929 -9.30142 14643 ft 386 kts
2026-04-27 01:48 37.59572 -9.29977 14464 ft 384 kts
2026-04-27 01:48 37.62242 -9.29810 14277 ft 383 kts
2026-04-27 01:48 37.64901 -9.29644 14101 ft 381 kts
2026-04-27 01:49 37.67548 -9.29479 13929 ft 380 kts
2026-04-27 01:49 37.70187 -9.29313 13753 ft 379 kts
2026-04-27 01:49 37.72818 -9.29147 13566 ft 378 kts
2026-04-27 01:49 37.75444 -9.28982 13387 ft 377 kts
2026-04-27 01:50 37.78060 -9.28818 13212 ft 376 kts
2026-04-27 01:50 37.80666 -9.28654 13041 ft 375 kts
2026-04-27 01:50 37.83272 -9.28489 12873 ft 374 kts
2026-04-27 01:50 37.85868 -9.28327 12710 ft 374 kts
2026-04-27 01:51 37.88465 -9.28164 12506 ft 373 kts
2026-04-27 01:51 37.91054 -9.28001 12114 ft 371 kts
2026-04-27 01:51 37.93629 -9.27839 11687 ft 367 kts
2026-04-27 01:51 37.96115 -9.27674 11479 ft 357 kts
2026-04-27 01:52 37.98560 -9.27505 11305 ft 346 kts
2026-04-27 01:52 38.00934 -9.27343 11127 ft 336 kts
2026-04-27 01:52 38.03239 -9.27186 10964 ft 327 kts
2026-04-27 01:52 38.05479 -9.27034 10799 ft 318 kts
2026-04-27 01:53 38.07654 -9.26888 10645 ft 309 kts
2026-04-27 01:53 38.09776 -9.26747 10493 ft 300 kts
2026-04-27 01:53 38.11831 -9.26612 10356 ft 291 kts
2026-04-27 01:53 38.13826 -9.26481 10213 ft 283 kts
2026-04-27 01:54 38.15777 -9.26356 9980 ft 279 kts
2026-04-27 01:54 38.17711 -9.26235 9657 ft 278 kts
2026-04-27 01:54 38.19617 -9.26117 9329 ft 277 kts
2026-04-27 01:54 38.21532 -9.26000 9023 ft 275 kts
2026-04-27 01:55 38.23440 -9.25882 8727 ft 273 kts
2026-04-27 01:55 38.25329 -9.25766 8434 ft 271 kts
2026-04-27 01:55 38.27204 -9.25651 8145 ft 269 kts
2026-04-27 01:55 38.29068 -9.25536 7865 ft 267 kts
2026-04-27 01:56 38.32756 -9.25310 7285 ft 264 kts
2026-04-27 01:56 38.34582 -9.25198 7003 ft 262 kts
2026-04-27 01:56 38.36397 -9.25086 6726 ft 260 kts
2026-04-27 01:57 38.38203 -9.24976 6445 ft 259 kts
2026-04-27 01:57 38.39999 -9.24866 6157 ft 258 kts
2026-04-27 01:57 38.41785 -9.24757 5864 ft 256 kts
2026-04-27 01:57 38.43562 -9.24648 5583 ft 255 kts
2026-04-27 01:58 38.45327 -9.24540 5299 ft 253 kts
2026-04-27 01:58 38.47079 -9.24432 5083 ft 249 kts
2026-04-27 01:58 38.48754 -9.24328 5015 ft 235 kts
2026-04-27 01:58 38.50333 -9.24229 4917 ft 220 kts
2026-04-27 01:59 38.51819 -9.24137 4765 ft 208 kts
2026-04-27 01:59 38.53227 -9.24051 4606 ft 197 kts
2026-04-27 01:59 38.54555 -9.23969 4470 ft 185 kts
2026-04-27 01:59 38.55806 -9.23893 4337 ft 174 kts
2026-04-27 02:00 38.56985 -9.23820 4206 ft 167 kts
2026-04-27 02:00 38.58165 -9.23749 4168 ft 173 kts
2026-04-27 02:00 38.59364 -9.23526 4139 ft 174 kts 21°
2026-04-27 02:00 38.60494 -9.22967 3990 ft 174 kts 24°
2026-04-27 02:01 38.61613 -9.22387 3758 ft 173 kts 25°
2026-04-27 02:01 38.62719 -9.21809 3510 ft 173 kts 25°
2026-04-27 02:01 38.63832 -9.21220 3223 ft 173 kts 25°
2026-04-27 02:01 38.64932 -9.20640 2997 ft 170 kts 25°
2026-04-27 02:02 38.66029 -9.20058 2728 ft 170 kts 25°
2026-04-27 02:02 38.67118 -9.19481 2534 ft 168 kts 25°
2026-04-27 02:02 38.68167 -9.18922 2247 ft 159 kts 26°
2026-04-27 02:02 38.69172 -9.18386 1974 ft 153 kts 27°
2026-04-27 02:03 38.70133 -9.17872 1798 ft 148 kts 26°
2026-04-27 02:03 38.71061 -9.17374 1704 ft 142 kts 26°
2026-04-27 02:03 38.71947 -9.16901 1427 ft 136 kts 26°
2026-04-27 02:03 38.72801 -9.16444 1195 ft 134 kts 25°
2026-04-27 02:04 38.73703 -9.15948 1099 ft 142 kts 24°
2026-04-27 02:04 38.74629 -9.15463 862 ft 144 kts 20°
2026-04-27 02:04 38.75560 -9.14968 622 ft 146 kts 20°
2026-04-27 02:04 38.76486 -9.14472 406 ft 141 kts 20°
2026-04-27 02:05 38.77346 -9.14015 352 ft 118 kts 23°
2026-04-27 02:05 38.77884 -9.13724 349 ft 54 kts 23°
2026-04-27 02:05 38.78147 -9.13584 354 ft 27 kts 24°
2026-04-27 02:05 38.78277 -9.13476 351 ft 19 kts 44°
2026-04-27 02:06 38.78350 -9.13382 348 ft 12 kts 48°
2026-04-27 02:06 38.78376 -9.13306 349 ft 10 kts 102°
2026-04-27 02:06 38.78315 -9.13269 350 ft 12 kts 190°
2026-04-27 02:06 38.78219 -9.13315 354 ft 17 kts 202°
2026-04-27 02:07 38.78113 -9.13371 352 ft 16 kts 202°
2026-04-27 02:07 38.78052 -9.13402 352 ft 4 kts 202°
2026-04-27 02:07 38.78006 -9.13428 355 ft 13 kts 203°
2026-04-27 02:07 38.77884 -9.13493 352 ft 24 kts 205°
2026-04-27 02:08 38.77742 -9.13572 355 ft 19 kts 202°
2026-04-27 02:08 38.77606 -9.13646 350 ft 18 kts 203°
2026-04-27 02:08 38.77467 -9.13722 353 ft 25 kts 202°
2026-04-27 02:08 38.77343 -9.13787 356 ft 19 kts 202°
2026-04-27 02:09 38.77228 -9.13846 354 ft 17 kts 202°
2026-04-27 02:09 38.77150 -9.13890 350 ft 18 kts 203°
2026-04-27 02:09 38.77056 -9.13890 352 ft 17 kts 166°
2026-04-27 02:09 38.76948 -9.13859 349 ft 12 kts 168°
2026-04-27 02:10 38.76887 -9.13843 349 ft 6 kts 169°
2026-04-27 02:10 38.76862 -9.13813 353 ft 6 kts 86°
2026-04-27 02:10 38.76871 -9.13755 349 ft 4 kts 77°
2026-04-27 02:10 38.76874 -9.13743 354 ft 0 kts 77°